Location: Franzen
(48.6167°N, 15.3833°E)
Time: 06:43:15
(UTC+00:00)

FALCON 9 DEB - Pass Details

Date: 04 August 2021
Orbit: 419 x 432 km, 53.0° (Epoch: 27 September)

Event Time Altitude Azimuth Distance (km) Brightness Sun altitude
Exits shadow 00:54:50 12° 122° (ESE) 1,387 5.6 -19.7°
Drops below altitude 10° 00:55:54 10° 105° (ESE) 1,530 6.0 -19.7°
Sets 00:58:57 0° 75° (ENE) 2,407 7.6 -19.4°
